N3WGC-14 Weather Reports


time (UTC)temp
C
wind
direction
speed
KPH
gust
KPH
rain 1hr
cm
rain 24hr
cm
rain mn
cm
humidity
%
barometer
mb
20260507075738 12 321 1.6 9.7 0.00 0.43 0.20 94 1010.8
20260507075238 12 101 3.2 3.2 0.00 0.43 0.20 94 1010.6
20260507074738 12 338 3.2 8.0 0.00 0.43 0.20 94 1010.6
20260507074238 12 339 3.2 8.0 0.03 0.43 0.20 94 1010.6
20260507073738 13 332 3.2 9.7 0.03 0.43 0.20 95 1010.6
20260507073238 13 52 1.6 14.5 0.03 0.43 0.20 95 1010.3
20260507072737 13 292 1.6 4.8 0.03 0.43 0.20 95 1010.2
20260507072237 13 53 1.6 4.8 0.03 0.43 0.20 95 1010.0
20260507071737 13 319 4.8 9.7 0.03 0.43 0.20 95 1010.2
20260507071237 13 350 8.0 11.3 0.03 0.43 0.20 95 1010.4
20260507070737 13 330 4.8 12.9 0.03 0.43 0.20 96 1010.3
20260507070237 13 329 4.8 9.7 0.03 0.43 0.20 95 1010.1
20260507065736 13 321 4.8 14.5 0.03 0.43 0.20 95 1009.9
20260507065236 13 340 9.7 11.3 0.05 0.43 0.20 95 1009.8
20260507064736 13 329 1.6 9.7 0.05 0.43 0.20 95 1009.8
20260507064236 13 328 4.8 9.7 0.05 0.41 0.18 96 1009.7
20260507063736 13 331 3.2 9.7 0.08 0.41 0.18 96 1009.8
20260507063236 13 337 4.8 9.7 0.10 0.41 0.18 96 1010.0
20260507062736 13 348 1.6 3.2 0.13 0.41 0.18 95 1009.9
20260507062235 13 336 3.2 8.0 0.15 0.41 0.18 95 1010.0
20260507061735 13 345 4.8 8.0 0.15 0.41 0.18 95 1010.2
20260507061235 13 328 4.8 11.3 0.15 0.41 0.18 94 1010.2
20260507060735 13 332 1.6 4.8 0.15 0.41 0.18 94 1010.4
20260507060235 13 313 3.2 4.8 0.18 0.41 0.18 93 1010.3
20260507055735 13 315 11.3 12.9 0.18 0.41 0.18 93 1010.6
20260507055234 14 339 3.2 3.2 0.15 0.38 0.15 91 1010.0
20260507054734 14 350 9.7 16.1 0.15 0.38 0.15 90 1010.0
20260507054234 15 318 4.8 12.9 0.13 0.36 0.13 90 1010.0
20260507053734 15 323 4.8 16.1 0.10 0.33 0.10 90 1009.9
20260507053234 15 319 9.7 11.3 0.08 0.30 0.08 90 1010.6
20260507052734 15 0 4.8 11.3 0.05 0.28 0.05 89 1010.7
20260507052204 16 326 8.0 16.1 0.03 0.25 0.03 89 1010.9
20260507051703 16 348 8.0 11.3 0.03 0.25 0.03 89 1010.7
20260507051203 16 322 3.2 4.8 0.03 0.25 0.03 89 1010.5
20260507050703 16 330 8.0 11.3 0.03 0.25 0.03 88 1010.5
20260507050203 17 323 4.8 8.0 0.00 0.23 0.00 86 1010.4
20260507045703 17 299 3.2 8.0 0.00 0.23 0.00 85 1010.2
20260507045203 17 334 3.2 8.0 0.00 0.23 0.00 84 1010.1
20260507044703 17 328 8.0 16.1 0.00 0.23 0.00 83 1010.1
20260507044202 17 327 8.0 9.7 0.00 0.23 0.00 83 1009.9
20260507043702 17 330 3.2 9.7 0.00 0.23 0.00 82 1009.9
20260507043202 17 293 4.8 4.8 0.00 0.23 0.00 81 1009.8
20260507042702 17 338 4.8 12.9 0.00 0.23 0.00 81 1009.7
20260507042202 17 327 8.0 11.3 0.00 0.23 0.00 82 1009.5
20260507041702 17 322 3.2 8.0 0.00 0.23 0.00 84 1009.3
20260507041201 17 331 1.6 8.0 0.00 0.23 0.00 85 1009.1
20260507040701 18 335 9.7 19.3 0.00 0.23 0.00 86 1009.5
20260507040201 18 323 8.0 11.3 0.00 0.23 0.00 88 1009.6
20260507035701 18 333 3.2 12.9 0.00 0.23 0.23 88 1009.6
20260507035201 18 323 3.2 4.8 0.00 0.23 0.23 88 1009.7
20260507034701 18 332 3.2 8.0 0.00 0.23 0.23 88 1009.7
20260507034201 18 306 3.2 4.8 0.00 0.23 0.23 88 1009.7
20260507033700 18 313 3.2 12.9 0.00 0.23 0.23 89 1009.6
20260507033200 18 323 1.6 3.2 0.00 0.23 0.23 90 1009.5
20260507032700 18 314 4.8 9.7 0.00 0.23 0.23 90 1009.3
20260507032200 18 271 3.2 11.3 0.00 0.23 0.23 91 1009.3
20260507031700 18 290 4.8 4.8 0.00 0.23 0.23 90 1009.4
20260507031200 18 103 1.6 4.8 0.00 0.23 0.23 90 1009.3
20260507030659 18 103 1.6 3.2 0.00 0.23 0.23 90 1009.2
20260507030159 18 103 1.6 1.6 0.00 0.23 0.23 90 1009.3
20260507025659 18 103 1.6 4.8 0.00 0.23 0.23 91 1009.2
20260507025159 18 103 0.0 1.6 0.00 0.23 0.23 91 1009.0
20260507024659 18 103 0.0 0.0 0.00 0.23 0.23 91 1008.8
20260507024159 18 103 0.0 0.0 0.00 0.23 0.23 91 1008.8
20260507023659 18 103 0.0 0.0 0.00 0.23 0.23 91 1008.9
20260507023158 18 103 0.0 0.0 0.00 0.23 0.23 91 1008.9
20260507022658 18 103 0.0 0.0 0.00 0.23 0.23 90 1008.9
20260507022158 18 103 0.0 0.0 0.00 0.23 0.23 90 1008.8
20260507021658 18 103 0.0 0.0 0.00 0.23 0.23 89 1008.8
20260507021158 18 103 0.0 0.0 0.00 0.23 0.23 89 1008.9
20260507020658 18 103 0.0 0.0 0.00 0.23 0.23 89 1008.8
20260507020158 18 103 1.6 1.6 0.00 0.23 0.23 89 1008.9
20260507015657 18 103 0.0 1.6 0.00 0.23 0.23 89 1009.1
20260507015157 18 103 0.0 1.6 0.00 0.23 0.23 89 1009.3
20260507014657 18 103 0.0 0.0 0.00 0.23 0.23 89 1009.5
20260507014157 18 103 0.0 1.6 0.00 0.23 0.23 89 1009.5
20260507013657 18 103 0.0 0.0 0.00 0.23 0.23 89 1009.6
20260507013157 18 103 0.0 0.0 0.00 0.23 0.23 89 1009.6
20260507012656 18 103 0.0 1.6 0.00 0.23 0.23 89 1009.7
20260507012156 18 103 0.0 0.0 0.00 0.23 0.23 89 1009.6
20260507011656 18 103 0.0 0.0 0.00 0.23 0.23 89 1009.5
20260507011156 18 103 0.0 1.6 0.00 0.23 0.23 89 1009.5
20260507010656 18 103 0.0 0.0 0.00 0.23 0.23 89 1009.2
20260507010156 18 103 0.0 0.0 0.00 0.23 0.23 89 1009.2
20260507005656 18 103 0.0 0.0 0.00 0.23 0.23 88 1009.3
20260507005155 18 103 0.0 1.6 0.00 0.23 0.23 88 1009.1
20260507004655 18 103 0.0 0.0 0.00 0.23 0.23 88 1009.1
20260507004155 18 103 0.0 0.0 0.00 0.23 0.23 88 1009.1
20260507003655 18 103 1.6 1.6 0.00 0.23 0.23 88 1009.1
20260507003155 18 245 0.0 1.6 0.00 0.23 0.23 88 1009.2
20260507002655 19 245 0.0 0.0 0.00 0.23 0.23 88 1009.2
20260507002155 19 245 0.0 0.0 0.00 0.23 0.23 87 1009.2
20260507001654 19 245 0.0 0.0 0.00 0.23 0.23 87 1009.1
20260507001154 19 252 0.0 3.2 0.00 0.23 0.23 87 1009.3
20260507000654 19 253 0.0 4.8 0.00 0.23 0.23 88 1009.1
20260507000154 19 218 0.0 1.6 0.00 0.23 0.23 88 1009.3
20260506235654 19 96 1.6 3.2 0.00 0.23 0.23 88 1009.0
20260506235154 19 96 0.0 0.0 0.00 0.23 0.23 87 1008.8
20260506234654 19 96 0.0 1.6 0.00 0.23 0.23 87 1008.8
20260506234153 19 96 0.0 0.0 0.00 0.23 0.23 87 1008.9
20260506233653 19 96 0.0 1.6 0.00 0.23 0.23 87 1008.7
20260506233153 19 96 0.0 1.6 0.00 0.23 0.23 87 1008.6
20260506232653 19 96 1.6 1.6 0.00 0.23 0.23 86 1008.7
20260506232153 20 96 0.0 1.6 0.00 0.23 0.23 86 1008.5
20260506231653 20 95 3.2 4.8 0.00 0.23 0.23 86 1008.4
20260506231152 20 355 1.6 3.2 0.00 0.23 0.23 86 1008.7
20260506230652 20 251 0.0 1.6 0.00 0.23 0.23 85 1008.6
20260506230152 20 229 0.0 3.2 0.00 0.23 0.23 85 1008.6
20260506225652 20 228 0.0 1.6 0.00 0.23 0.23 85 1008.4
20260506225152 20 269 0.0 1.6 0.00 0.23 0.23 84 1008.5
20260506224622 20 245 3.2 4.8 0.00 0.23 0.23 84 1008.7
20260506224121 20 266 0.0 1.6 0.00 0.23 0.23 84 1008.8
20260506223621 20 264 1.6 3.2 0.00 0.23 0.23 84 1008.7
20260506223121 20 247 1.6 3.2 0.00 0.23 0.23 84 1008.6
20260506222621 20 251 8.0 9.7 0.00 0.23 0.23 84 1008.7
20260506222121 20 249 3.2 8.0 0.00 0.23 0.23 84 1008.7
20260506221621 20 243 4.8 9.7 0.00 0.23 0.23 83 1008.7
20260506221121 20 257 8.0 8.0 0.00 0.23 0.23 83 1008.7
20260506220620 21 252 1.6 4.8 0.00 0.23 0.23 83 1008.7
20260506220120 21 246 3.2 8.0 0.00 0.23 0.23 83 1008.6
20260506215620 21 213 0.0 1.6 0.00 0.23 0.23 83 1008.6
20260506215120 20 222 3.2 4.8 0.00 0.23 0.23 83 1008.6
20260506214620 21 264 3.2 4.8 0.00 0.23 0.23 83 1008.6
20260506214120 21 198 3.2 4.8 0.00 0.23 0.23 83 1008.5
20260506213620 21 265 3.2 4.8 0.00 0.23 0.23 84 1008.5
20260506213119 20 225 0.0 4.8 0.00 0.23 0.23 84 1008.5
20260506212619 20 264 8.0 8.0 0.00 0.23 0.23 83 1008.6
20260506212119 20 250 8.0 12.9 0.00 0.23 0.23 83 1008.5
20260506211619 20 214 1.6 1.6 0.00 0.23 0.23 84 1008.2
20260506211119 20 253 3.2 8.0 0.00 0.23 0.23 83 1008.3
20260506210619 20 254 4.8 11.3 0.00 0.23 0.23 83 1008.4
20260506210118 20 262 8.0 9.7 0.00 0.23 0.23 82 1008.3
20260506205618 21 234 8.0 11.3 0.00 0.23 0.23 82 1008.2
20260506205048 21 250 9.7 16.1 0.00 0.23 0.23 81 1008.2
20260506204548 21 234 4.8 8.0 0.00 0.23 0.23 82 1008.3
20260506204048 21 249 9.7 14.5 0.00 0.23 0.23 82 1008.2
20260506203548 21 258 1.6 9.7 0.00 0.23 0.23 83 1008.2
20260506203048 21 233 4.8 12.9 0.00 0.23 0.23 83 1008.3
20260506202547 21 162 4.8 14.5 0.00 0.23 0.23 82 1008.2
20260506202047 21 52 3.2 4.8 0.00 0.23 0.23 82 1008.2
20260506201547 21 231 8.0 14.5 0.00 0.23 0.23 82 1008.3
20260506201047 21 217 8.0 12.9 0.00 0.23 0.23 83 1008.2
20260506200547 21 245 9.7 19.3 0.00 0.23 0.23 81 1008.1
20260506200047 21 228 3.2 12.9 0.00 0.23 0.23 82 1008.1
20260506195547 21 337 1.6 3.2 0.00 0.23 0.23 83 1008.3
20260506195046 21 318 1.6 4.8 0.00 0.23 0.23 82 1008.2
20260506194547 21 214 3.2 11.3 0.00 0.23 0.23 83 1008.3
20260506194046 21 176 1.6 4.8 0.00 0.23 0.23 82 1008.4
20260506193546 21 236 3.2 12.9 0.00 0.23 0.23 82 1008.3
20260506193046 20 213 4.8 4.8 0.00 0.23 0.23 82 1008.5
20260506192546 20 249 8.0 9.7 0.00 0.23 0.23 82 1008.5
20260506192045 20 260 3.2 16.1 0.00 0.23 0.23 84 1008.4
20260506191545 20 333 1.6 4.8 0.00 0.23 0.23 84 1008.4
20260506191045 20 258 9.7 19.3 0.00 0.23 0.23 83 1008.5
20260506190545 20 250 4.8 16.1 0.00 0.23 0.23 84 1008.6
20260506190045 20 210 4.8 8.0 0.00 0.23 0.23 84 1008.7
20260506185545 20 258 4.8 9.7 0.00 0.23 0.23 84 1008.7
20260506185045 20 245 3.2 12.9 0.00 0.23 0.23 85 1008.7
20260506184544 20 241 8.0 12.9 0.00 0.23 0.23 85 1008.7
20260506184044 20 228 4.8 14.5 0.00 0.23 0.23 84 1008.9
20260506183544 20 215 4.8 11.3 0.00 0.23 0.23 84 1009.0
20260506183044 20 242 9.7 20.9 0.00 0.23 0.23 84 1009.0
20260506182544 20 229 3.2 12.9 0.00 0.23 0.23 85 1008.9
20260506182044 19 250 12.9 24.1 0.00 0.23 0.23 84 1009.2
20260506181543 19 235 11.3 19.3 0.00 0.23 0.23 85 1009.2
20260506181043 19 259 8.0 16.1 0.00 0.23 0.23 86 1009.1
20260506180543 19 220 4.8 11.3 0.00 0.23 0.23 86 1009.1
20260506180043 19 213 4.8 9.7 0.00 0.23 0.23 86 1009.2
20260506175543 19 240 8.0 16.1 0.00 0.23 0.23 86 1009.2
20260506175043 18 201 9.7 20.9 0.00 0.23 0.23 86 1009.2
20260506174543 18 251 4.8 16.1 0.00 0.23 0.23 87 1009.2
20260506174042 18 211 11.3 16.1 0.00 0.23 0.23 87 1009.3
20260506173542 18 215 8.0 12.9 0.00 0.23 0.23 88 1009.4
20260506173042 18 174 11.3 19.3 0.00 0.23 0.23 88 1009.2
20260506172542 18 201 8.0 11.3 0.00 0.23 0.23 89 1009.3
20260506172042 18 246 1.6 4.8 0.00 0.23 0.23 89 1009.4
20260506171542 18 227 8.0 16.1 0.00 0.23 0.23 88 1009.5
20260506171042 18 212 8.0 16.1 0.00 0.23 0.23 89 1009.4
20260506170541 18 209 11.3 25.7 0.00 0.23 0.23 89 1009.5
20260506170041 18 221 4.8 12.9 0.00 0.23 0.23 89 1009.6
20260506165541 18 186 3.2 8.0 0.00 0.23 0.23 89 1009.6
20260506165041 18 229 4.8 8.0 0.00 0.23 0.23 89 1009.7
20260506164541 18 270 8.0 20.9 0.00 0.23 0.23 89 1009.6
20260506164041 18 268 9.7 19.3 0.03 0.23 0.23 90 1009.5
20260506163540 17 235 4.8 16.1 0.03 0.23 0.23 91 1009.4
20260506163040 17 319 3.2 8.0 0.03 0.23 0.23 92 1009.3
20260506162540 17 170 3.2 12.9 0.03 0.23 0.23 93 1009.6
20260506162040 17 251 1.6 4.8 0.03 0.23 0.23 93 1009.8
20260506161540 17 204 3.2 8.0 0.08 0.23 0.23 93 1009.8
20260506161040 17 86 3.2 4.8 0.10 0.23 0.23 93 1009.9
20260506160540 17 134 1.6 9.7 0.13 0.23 0.23 93 1010.0
20260506160039 17 107 4.8 11.3 0.15 0.23 0.23 93 1009.9
20260506155539 17 144 1.6 4.8 0.15 0.23 0.23 94 1009.8
20260506155039 16 108 4.8 12.9 0.18 0.23 0.23 94 1009.7
20260506154539 16 101 4.8 11.3 0.18 0.23 0.23 94 1009.9
20260506154039 16 231 1.6 4.8 0.18 0.20 0.20 94 1010.2
20260506153539 16 110 8.0 9.7 0.18 0.20 0.20 93 1010.4
20260506153039 16 265 0.0 3.2 0.18 0.20 0.20 93 1010.6
20260506152538 16 96 1.6 1.6 0.18 0.20 0.20 92 1010.6
20260506152038 16 183 3.2 8.0 0.20 0.20 0.20 92 1010.7
20260506151538 17 200 3.2 4.8 0.15 0.15 0.15 91 1010.8
20260506151038 17 223 4.8 9.7 0.13 0.13 0.13 91 1010.7
20260506150538 17 236 3.2 4.8 0.10 0.10 0.10 90 1010.6
20260506150038 17 176 3.2 9.7 0.08 0.08 0.08 89 1010.7
20260506145537 17 27 0.0 4.8 0.08 0.08 0.08 88 1010.6
20260506145037 17 109 3.2 3.2 0.05 0.05 0.05 88 1010.7
20260506144537 17 102 3.2 4.8 0.05 0.05 0.05 87 1010.7
20260506144037 17 273 3.2 4.8 0.03 0.03 0.03 87 1010.7
20260506143537 17 317 1.6 4.8 0.03 0.03 0.03 87 1010.7
20260506143037 17 95 3.2 4.8 0.03 0.03 0.03 86 1010.8
20260506142537 17 20 1.6 1.6 0.03 0.03 0.03 85 1010.7
20260506142036 17 136 1.6 4.8 0.00 0.00 0.00 84 1010.8
20260506141536 18 58 4.8 4.8 0.00 0.00 0.00 83 1010.8
20260506141036 18 271 3.2 11.3 0.00 0.00 0.00 82 1010.9
20260506140536 18 228 3.2 12.9 0.00 0.00 0.00 82 1010.9
20260506140036 18 334 4.8 12.9 0.00 0.00 0.00 81 1011.0
20260506135536 18 255 4.8 11.3 0.00 0.00 0.00 81 1011.0
20260506135036 18 4 3.2 8.0 0.00 0.00 0.00 81 1011.0
20260506134535 18 222 1.6 9.7 0.00 0.00 0.00 81 1010.9
20260506134035 18 206 3.2 19.3 0.00 0.00 0.00 81 1010.8
20260506133535 18 249 4.8 11.3 0.00 0.00 0.00 80 1010.8
20260506133035 18 79 3.2 4.8 0.00 0.00 0.00 80 1010.7
20260506132535 18 36 3.2 9.7 0.00 0.00 0.00 79 1010.7
20260506132035 18 216 4.8 12.9 0.00 0.00 0.00 79 1010.6
20260506131534 18 155 4.8 4.8 0.00 0.00 0.00 79 1010.6
20260506131034 18 87 3.2 4.8 0.00 0.00 0.00 79 1010.5
20260506130534 18 217 4.8 12.9 0.00 0.00 0.00 79 1010.4
20260506130034 18 149 4.8 12.9 0.00 0.00 0.00 79 1010.5
20260506125534 18 205 4.8 12.9 0.00 0.00 0.00 79 1010.5
20260506125034 18 15 3.2 8.0 0.00 0.00 0.00 79 1010.5
20260506124534 18 111 4.8 11.3 0.00 0.00 0.00 80 1010.6
20260506124033 18 301 3.2 4.8 0.00 0.00 0.00 80 1010.7
20260506123533 18 237 4.8 14.5 0.00 0.00 0.00 79 1010.7
20260506123033 18 160 3.2 9.7 0.00 0.00 0.00 79 1010.8
20260506122533 18 128 1.6 4.8 0.00 0.00 0.00 80 1010.8
20260506122033 18 109 8.0 12.9 0.00 0.00 0.00 79 1010.7
20260506121533 18 279 3.2 8.0 0.00 0.00 0.00 79 1010.7
20260506121032 18 238 3.2 11.3 0.00 0.00 0.00 79 1010.7
20260506120532 18 190 8.0 22.5 0.00 0.00 0.00 79 1010.6
20260506120032 18 80 3.2 8.0 0.00 0.00 0.00 80 1010.6
20260506115532 18 145 3.2 8.0 0.00 0.00 0.00 80 1010.5
20260506115032 18 152 4.8 14.5 0.00 0.00 0.00 81 1010.4
20260506114532 18 172 3.2 9.7 0.00 0.00 0.00 81 1010.4
20260506114032 18 90 4.8 11.3 0.00 0.00 0.00 81 1010.5
20260506113531 18 203 4.8 9.7 0.00 0.00 0.00 81 1010.5
20260506113031 18 16 1.6 4.8 0.00 0.00 0.00 81 1010.4
20260506112531 18 56 3.2 8.0 0.00 0.00 0.00 81 1010.3
20260506112031 18 161 3.2 4.8 0.00 0.00 0.00 81 1010.3
20260506111501 18 7 1.6 3.2 0.00 0.00 0.00 82 1010.3
20260506111001 18 65 1.6 4.8 0.00 0.00 0.00 82 1010.3
20260506110500 18 161 1.6 4.8 0.00 0.00 0.00 82 1010.2
20260506110000 18 91 4.8 4.8 0.00 0.00 0.00 82 1010.2
20260506105500 18 119 3.2 11.3 0.00 0.00 0.00 83 1010.2
20260506105000 18 83 3.2 4.8 0.00 0.00 0.00 83 1010.2
20260506104500 18 285 3.2 14.5 0.00 0.00 0.00 83 1010.1
20260506104000 17 95 3.2 9.7 0.00 0.00 0.00 83 1010.1
20260506103500 17 268 4.8 3.2 0.00 0.00 0.00 83 1010.2
20260506102959 17 21 3.2 8.0 0.00 0.00 0.00 83 1010.2
20260506102459 18 146 3.2 4.8 0.00 0.00 0.00 83 1010.1
20260506101959 18 170 3.2 8.0 0.00 0.00 0.00 83 1010.1
20260506101459 18 95 3.2 11.3 0.00 0.00 0.00 83 1010.1
20260506100959 18 157 3.2 14.5 0.00 0.00 0.00 83 1010.2
20260506100459 18 2 3.2 4.8 0.00 0.00 0.00 83 1010.2
20260506095959 18 90 3.2 9.7 0.00 0.00 0.00 83 1010.2
20260506095458 18 113 4.8 9.7 0.00 0.00 0.00 83 1010.2
20260506094958 18 96 3.2 12.9 0.00 0.00 0.00 83 1010.2
20260506094458 18 110 4.8 9.7 0.00 0.00 0.00 83 1010.2
20260506093958 18 107 3.2 9.7 0.00 0.00 0.00 83 1010.2
20260506093458 18 269 3.2 4.8 0.00 0.00 0.00 83 1010.2
20260506092958 18 20 1.6 4.8 0.00 0.00 0.00 83 1010.2
20260506092457 18 116 4.8 8.0 0.00 0.00 0.00 83 1010.1
20260506091957 18 112 4.8 8.0 0.00 0.00 0.00 83 1010.2
20260506091457 18 36 3.2 8.0 0.00 0.00 0.00 83 1010.3
20260506090957 18 91 4.8 9.7 0.00 0.00 0.00 83 1010.3
20260506090457 18 77 3.2 8.0 0.00 0.00 0.00 83 1010.2
20260506085957 18 83 4.8 12.9 0.00 0.00 0.00 83 1010.3
20260506085457 18 79 3.2 8.0 0.00 0.00 0.00 83 1010.4
20260506084956 18 120 4.8 9.7 0.00 0.00 0.00 83 1010.4
20260506084456 18 100 3.2 12.9 0.00 0.00 0.00 83 1010.4
20260506083956 18 330 3.2 9.7 0.00 0.00 0.00 82 1010.3
20260506083456 18 105 3.2 4.8 0.00 0.00 0.00 82 1010.3
20260506082956 18 259 3.2 14.5 0.00 0.00 0.00 82 1010.2
20260506082456 18 108 1.6 4.8 0.00 0.00 0.00 82 1010.1
20260506081956 18 97 4.8 4.8 0.00 0.00 0.00 82 1010.1
20260506081455 18 132 4.8 14.5 0.00 0.00 0.00 82 1010.2
20260506080955 18 82 3.2 12.9 0.00 0.00 0.00 82 1010.3
20260506080455 18 89 3.2 4.8 0.00 0.00 0.00 82 1010.3